Previsão horária em Alkino-2

Hoje, 16 Junho, Quarta-feira

Tempo Temperatura Precipitação Vento Pressão Humidade
00:00 +20°C° 0 mm 2 m/s 745 mmHg 81%
01:00 +20°C° 0 mm 1 m/s 745 mmHg 83%
02:00 +20°C° 0 mm 1 m/s 745 mmHg 83%
03:00 +18°C° 0 mm 2 m/s 745 mmHg 83%
04:00 +18°C° 0 mm 2 m/s 745 mmHg 83%
05:00 +19°C° 0 mm 2 m/s 745 mmHg 79%
06:00 +21°C° 0 mm 2 m/s 745 mmHg 74%
07:00 +23°C° 0 mm 2 m/s 745 mmHg 70%
08:00 +25°C° 0 mm 3 m/s 745 mmHg 65%
09:00 +26°C° 0 mm 4 m/s 745 mmHg 59%
10:00 +27°C° 0 mm 5 m/s 745 mmHg 54%
11:00 +28°C° 0 mm 5 m/s 744 mmHg 53%
12:00 +29°C° 0 mm 5 m/s 744 mmHg 51%
13:00 +30°C° 0 mm 5 m/s 744 mmHg 49%
14:00 +30°C° 0 mm 5 m/s 744 mmHg 50%
15:00 +30°C° 0 mm 5 m/s 743 mmHg 51%
16:00 +30°C° 0 mm 5 m/s 743 mmHg 52%
17:00 +28°C° 0 mm 4 m/s 743 mmHg 58%
18:00 +27°C° 0 mm 4 m/s 742 mmHg 63%
19:00 +26°C° 0 mm 3 m/s 742 mmHg 68%
20:00 +23°C° 1.8 mm 4 m/s 742 mmHg 75%
21:00 +20°C° 1.8 mm 5 m/s 742 mmHg 82%
22:00 +17°C° 1.8 mm 6 m/s 742 mmHg 88%
23:00 +17°C° 0.6 mm 5 m/s 742 mmHg 89%

Amanhã, 17 Junho, Quinta-feira

Tempo Temperatura Precipitação Vento Pressão Humidade
00:00 +18°C° 0.6 mm 4 m/s 742 mmHg 90%
01:00 +17°C° 0.6 mm 3 m/s 741 mmHg 91%
02:00 +17°C° 0.1 mm 3 m/s 741 mmHg 91%
03:00 +17°C° 0.1 mm 3 m/s 741 mmHg 91%
04:00 +17°C° 0.1 mm 2 m/s 741 mmHg 92%
05:00 +18°C° 0.4 mm 3 m/s 741 mmHg 89%
06:00 +19°C° 0.4 mm 3 m/s 740 mmHg 87%
07:00 +21°C° 0.4 mm 3 m/s 740 mmHg 85%
08:00 +22°C° 0.6 mm 3 m/s 740 mmHg 82%
09:00 +22°C° 0.6 mm 4 m/s 740 mmHg 80%
10:00 +23°C° 0.6 mm 5 m/s 740 mmHg 77%
11:00 +23°C° 0.5 mm 5 m/s 741 mmHg 78%
12:00 +22°C° 0.5 mm 6 m/s 741 mmHg 80%
13:00 +21°C° 0.5 mm 6 m/s 742 mmHg 82%
14:00 +22°C° 0.1 mm 7 m/s 742 mmHg 76%
15:00 +22°C° 0.1 mm 7 m/s 742 mmHg 70%
16:00 +22°C° 0.1 mm 7 m/s 743 mmHg 64%
17:00 +21°C° 0 mm 7 m/s 743 mmHg 64%
18:00 +20°C° 0 mm 7 m/s 743 mmHg 64%
19:00 +20°C° 0 mm 6 m/s 744 mmHg 63%
20:00 +19°C° 0 mm 6 m/s 744 mmHg 62%
21:00 +17°C° 0 mm 5 m/s 745 mmHg 60%
22:00 +16°C° 0 mm 5 m/s 745 mmHg 58%
23:00 +16°C° 0 mm 5 m/s 745 mmHg 58%

Depois de amanhã, 18 Junho, Sexta-feira

Tempo Temperatura Precipitação Vento Pressão Humidade
00:00 +15°C° 0 mm 5 m/s 746 mmHg 57%
01:00 +15°C° 0 mm 5 m/s 746 mmHg 57%
02:00 +14°C° 0 mm 5 m/s 746 mmHg 63%
03:00 +13°C° 0 mm 5 m/s 746 mmHg 69%
04:00 +10°C° 0 mm 5 m/s 747 mmHg 74%
05:00 +12°C° 0 mm 5 m/s 747 mmHg 74%
06:00 +13°C° 0 mm 5 m/s 748 mmHg 74%
07:00 +13°C° 0 mm 6 m/s 748 mmHg 74%
08:00 +14°C° 0 mm 6 m/s 748 mmHg 67%
09:00 +16°C° 0 mm 6 m/s 749 mmHg 61%
10:00 +17°C° 0 mm 6 m/s 749 mmHg 54%
11:00 +18°C° 0 mm 7 m/s 749 mmHg 51%
12:00 +18°C° 0 mm 7 m/s 750 mmHg 48%
13:00 +18°C° 0 mm 7 m/s 750 mmHg 45%
14:00 +18°C° 0 mm 7 m/s 750 mmHg 47%
15:00 +18°C° 0 mm 7 m/s 750 mmHg 48%
16:00 +19°C° 0 mm 6 m/s 750 mmHg 50%
17:00 +19°C° 0 mm 6 m/s 750 mmHg 55%
18:00 +17°C° 0 mm 5 m/s 751 mmHg 59%
19:00 +17°C° 0 mm 4 m/s 751 mmHg 63%
20:00 +14°C° 0 mm 4 m/s 751 mmHg 67%
21:00 +13°C° 0 mm 3 m/s 751 mmHg 71%
22:00 +11°C° 0 mm 3 m/s 752 mmHg 75%
23:00 +11°C° 0 mm 3 m/s 752 mmHg 76%

19 Junho, Sábado

Tempo Temperatura Precipitação Vento Pressão Humidade
00:00 +11°C° 0 mm 3 m/s 752 mmHg 77%
01:00 +10°C° 0 mm 3 m/s 752 mmHg 77%
02:00 +10°C° 0 mm 3 m/s 752 mmHg 78%
03:00 +10°C° 0 mm 2 m/s 752 mmHg 78%
04:00 +9°C° 0 mm 2 m/s 753 mmHg 79%
05:00 +11°C° 0 mm 3 m/s 753 mmHg 75%
06:00 +13°C° 0 mm 3 m/s 753 mmHg 71%
07:00 +14°C° 0 mm 3 m/s 753 mmHg 68%
08:00 +17°C° 0 mm 4 m/s 753 mmHg 63%
09:00 +17°C° 0 mm 5 m/s 753 mmHg 58%
10:00 +19°C° 0 mm 5 m/s 753 mmHg 53%
11:00 +20°C° 0 mm 5 m/s 752 mmHg 52%
12:00 +21°C° 0 mm 5 m/s 752 mmHg 50%
13:00 +22°C° 0 mm 6 m/s 751 mmHg 48%
14:00 +23°C° 0 mm 6 m/s 751 mmHg 50%
15:00 +23°C° 0 mm 6 m/s 750 mmHg 52%
16:00 +23°C° 0 mm 6 m/s 750 mmHg 54%
17:00 +23°C° 0 mm 6 m/s 750 mmHg 59%
18:00 +22°C° 0 mm 6 m/s 749 mmHg 64%
19:00 +22°C° 0 mm 6 m/s 749 mmHg 69%
20:00 +21°C° 0 mm 6 m/s 749 mmHg 72%
21:00 +21°C° 0 mm 6 m/s 748 mmHg 75%
22:00 +20°C° 0 mm 6 m/s 748 mmHg 78%
23:00 +20°C° 0 mm 6 m/s 748 mmHg 81%

20 Junho, Domingo

Tempo Temperatura Precipitação Vento Pressão Humidade
00:00 +19°C° 0 mm 6 m/s 748 mmHg 84%
01:00 +19°C° 0 mm 5 m/s 747 mmHg 87%
02:00 +17°C° 0 mm 5 m/s 747 mmHg 89%
03:00 +17°C° 0 mm 5 m/s 747 mmHg 91%
04:00 +17°C° 0 mm 4 m/s 747 mmHg 93%
05:00 +19°C° 0 mm 4 m/s 747 mmHg 88%
06:00 +20°C° 0 mm 5 m/s 747 mmHg 83%
07:00 +21°C° 0 mm 5 m/s 748 mmHg 78%
08:00 +22°C° 0 mm 5 m/s 748 mmHg 73%
09:00 +24°C° 0 mm 6 m/s 748 mmHg 69%
10:00 +26°C° 0 mm 6 m/s 748 mmHg 64%
11:00 +26°C° 0 mm 7 m/s 748 mmHg 61%
12:00 +27°C° 0 mm 7 m/s 748 mmHg 58%
13:00 +27°C° 0 mm 8 m/s 748 mmHg 55%
14:00 +27°C° 0 mm 8 m/s 748 mmHg 55%
15:00 +27°C° 0 mm 8 m/s 748 mmHg 54%
16:00 +26°C° 0 mm 7 m/s 748 mmHg 54%
17:00 +24°C° 0 mm 7 m/s 749 mmHg 55%
18:00 +22°C° 0 mm 6 m/s 749 mmHg 56%
19:00 +21°C° 0 mm 6 m/s 749 mmHg 58%
20:00 +19°C° 0 mm 5 m/s 750 mmHg 62%
21:00 +17°C° 0 mm 4 m/s 750 mmHg 66%
22:00 +14°C° 0 mm 3 m/s 750 mmHg 71%
23:00 +14°C° 0 mm 2 m/s 750 mmHg 70%

21 Junho, Segunda-feira

Tempo Temperatura Precipitação Vento Pressão Humidade
00:00 +14°C° 0 mm 2 m/s 750 mmHg 70%
01:00 +13°C° 0 mm 2 m/s 750 mmHg 69%
02:00 +13°C° 0 mm 2 m/s 751 mmHg 68%
03:00 +12°C° 0 mm 2 m/s 751 mmHg 67%
04:00 +12°C° 0 mm 1 m/s 751 mmHg 66%
05:00 +13°C° 0 mm 1 m/s 751 mmHg 63%
06:00 +15°C° 0 mm 1 m/s 751 mmHg 60%
07:00 +18°C° 0 mm 1 m/s 751 mmHg 56%
08:00 +19°C° 0 mm 1 m/s 751 mmHg 52%
09:00 +20°C° 0 mm 2 m/s 751 mmHg 48%
10:00 +23°C° 0 mm 2 m/s 751 mmHg 44%
11:00 +24°C° 0 mm 2 m/s 750 mmHg 44%
12:00 +25°C° 0 mm 3 m/s 750 mmHg 43%
13:00 +26°C° 0 mm 3 m/s 750 mmHg 43%
14:00 +27°C° 0 mm 4 m/s 749 mmHg 46%
15:00 +27°C° 0 mm 4 m/s 749 mmHg 48%
16:00 +28°C° 0 mm 5 m/s 748 mmHg 51%
17:00 +27°C° 0 mm 5 m/s 748 mmHg 57%
18:00 +26°C° 0 mm 5 m/s 747 mmHg 63%
19:00 +26°C° 0 mm 4 m/s 746 mmHg 69%
20:00 +25°C° 0 mm 5 m/s 746 mmHg 72%
21:00 +23°C° 0 mm 5 m/s 746 mmHg 75%
22:00 +21°C° 0 mm 5 m/s 745 mmHg 79%
23:00 +21°C° 0.1 mm 5 m/s 745 mmHg 80%
Mostrar mais